User: anonymous   Login
Location: Newark
(21.1200°N, 73.4000°E)
Time: 02:53:24
(UTC+00:00)
Language:

Transit 2A - Orbit

View from above orbital plane
View from above orbital plane
View from above satellite
View from above satellite

Ground track
Ground track

The orbit data is extracted from the following two-line orbital elements,

1    45U 60007A   20019.46079173 -.00000070 +00000-0 +91643-5 0  9997
2    45 066.6948 056.1855 0248877 064.0600 298.5917 14.33662816044337
Epoch (UTC): 19 January 2020 11:03:32
Eccentricity: 0.0248877
inclination: 66.6948°
perigee height: 601 km
apogee height: 957 km
right ascension of ascending node: 56.1855°
argument of perigee: 64.0600°
revolutions per day: 14.33662816
mean anomaly at epoch: 298.5917°
orbit number at epoch: 4433

The dashed part of the orbit path shows where the satellite is in the earth's shadow,  

DLR